DW2851 Weather Reports


Display with metric or nautical units.
time (UTC)temp
F
wind
direction
speed
MPH
gust
MPH
rain 1hr
in
rain 24hr
in
rain mn
in
humidity
%
barometer
mb
20190121055054 33 221 0.0 4.0 0.00 0.02 0.02 93 1023.4
20190121054624 33 221 1.0 4.0 0.00 0.02 0.02 93 1023.4
20190121053548 33 221 0.0 3.0 0.00 0.02 0.02 93 1023.4
20190121053112 33 221 1.0 3.0 0.00 0.02 0.02 93 1023.4
20190121052546 33 221 1.0 3.0 0.00 0.02 0.02 93 1023.6
20190121052045 34 221 1.0 2.0 0.00 0.02 0.02 93 1023.5
20190121051619 34 221 0.0 3.0 0.00 0.02 0.02 93 1023.7
20190121051044 34 221 1.0 5.0 0.00 0.02 0.02 93 1023.6
20190121050542 34 221 1.0 5.0 0.00 0.02 0.02 93 1023.7
20190121050125 34 221 1.0 3.0 0.00 0.02 0.02 93 1023.7
20190121045542 34 221 0.0 4.0 0.00 0.02 0.02 93 1023.8
20190121045040 34 221 0.0 4.0 0.00 0.02 0.02 93 1023.9
20190121044645 34 221 1.0 5.0 0.00 0.02 0.02 93 1023.9
20190121044038 34 221 0.0 5.0 0.00 0.02 0.02 93 1024.0
20190121043543 34 219 2.0 5.0 0.00 0.02 0.02 93 1024.1
20190121043112 34 219 0.0 4.0 0.00 0.02 0.02 94 1024.0
20190121042541 34 219 2.0 4.0 0.00 0.02 0.02 94 1024.1
20190121042037 35 219 2.0 4.0 0.00 0.02 0.02 94 1024.0
20190121041546 35 219 2.0 5.0 0.00 0.02 0.02 94 1024.0
20190121041036 35 219 2.0 5.0 0.00 0.02 0.02 93 1024.0
20190121040536 35 219 2.0 5.0 0.00 0.02 0.02 93 1024.1
20190121040255 35 219 1.0 4.0 0.00 0.02 0.02 93 1024.1
20190121035536 35 218 2.0 4.0 0.00 0.02 0.02 93 1024.1
20190121035035 35 217 2.0 5.0 0.00 0.02 0.02 93 1024.1
20190121034630 35 217 3.0 5.0 0.00 0.02 0.02 93 1024.2
20190121034033 36 227 2.0 5.0 0.00 0.02 0.02 93 1024.3
20190121033535 36 227 2.0 5.0 0.00 0.02 0.02 94 1024.2
20190121033114 36 245 2.0 5.0 0.00 0.02 0.02 94 1024.3
20190121032533 36 227 2.0 5.0 0.00 0.02 0.02 94 1024.2
20190121032031 36 222 1.0 5.0 0.00 0.02 0.02 94 1024.3
20190121031619 37 221 1.0 4.0 0.00 0.02 0.02 94 1024.3
20190121031033 37 221 1.0 4.0 0.00 0.02 0.02 94 1024.3
20190121030532 37 221 0.0 4.0 0.00 0.02 0.02 94 1024.3
20190121030059 37 221 1.0 5.0 0.00 0.02 0.02 94 1024.4
20190121025528 37 220 1.0 5.0 0.01 0.02 0.02 94 1024.5
20190121025031 37 238 1.0 7.0 0.01 0.02 0.02 94 1024.5
20190121024611 37 239 3.0 7.0 0.01 0.02 0.02 94 1024.5
20190121024033 37 228 2.0 6.0 0.01 0.02 0.02 94 1024.5
20190121023527 37 241 2.0 6.0 0.02 0.02 0.02 94 1024.6
20190121023114 37 236 1.0 7.0 0.02 0.02 0.02 94 1024.6
20190121022534 37 230 1.0 7.0 0.02 0.02 0.02 95 1024.6
20190121022025 37 239 2.0 7.0 0.02 0.02 0.02 95 1024.6
20190121021541 37 238 1.0 4.0 0.02 0.02 0.02 95 1024.6
20190121021025 37 240 0.0 2.0 0.02 0.02 0.02 94 1024.5
20190121020529 37 240 0.0 2.0 0.02 0.02 0.02 94 1024.5
20190121020110 37 240 0.0 2.0 0.02 0.02 0.02 95 1024.6
20190121015530 37 240 0.0 2.0 0.02 0.02 0.02 95 1024.5
20190121015029 36 240 0.0 2.0 0.02 0.02 0.02 95 1024.4
20190121014536 36 240 0.0 1.0 0.02 0.02 0.02 95 1024.4
20190121014031 36 240 0.0 3.0 0.02 0.02 0.02 94 1024.5
20190121013527 36 240 0.0 4.0 0.01 0.01 0.01 94 1024.6
20190121013056 36 240 2.0 4.0 0.01 0.01 0.01 94 1024.6
20190121012522 36 240 0.0 3.0 0.01 0.01 0.01 94 1024.6
20190121012024 36 240 1.0 4.0 0.01 0.01 0.01 94 1024.6
20190121011543 36 240 0.0 8.0 0.00 0.00 0.00 94 1024.7
20190121011027 36 240 3.0 9.0 0.00 0.00 0.00 94 1024.7
20190121010520 36 229 2.0 6.0 0.00 0.00 0.00 94 1024.7
20190121010037 36 229 1.0 4.0 0.00 0.00 0.00 93 1024.7
20190121005519 36 229 0.0 2.0 0.00 0.00 0.00 94 1024.6
20190121005018 36 229 0.0 5.0 0.00 0.00 0.00 94 1024.4
20190121004524 36 229 1.0 5.0 0.00 0.00 0.00 94 1024.4
20190121004020 36 227 2.0 4.0 0.00 0.00 0.00 94 1024.3
20190121003518 36 223 1.0 5.0 0.00 0.00 0.00 94 1024.3
20190121003045 36 223 1.0 5.0 0.00 0.00 0.00 94 1024.3
20190121002520 36 225 2.0 5.0 0.00 0.00 0.00 94 1024.3
20190121002014 36 230 2.0 5.0 0.00 0.00 0.00 94 1024.3
20190121001518 36 229 2.0 5.0 0.00 0.00 0.00 94 1024.3
20190121001014 36 229 1.0 5.0 0.00 0.00 0.00 94 1024.3
20190121000517 36 229 2.0 7.0 0.00 0.00 0.00 94 1024.3
20190121000033 36 235 3.0 7.0 0.00 0.00 0.00 94 1024.2
20190120235516 36 227 3.0 5.0 0.00 0.00 0.00 94 1024.2
20190120235017 36 225 2.0 4.0 0.00 0.00 0.00 93 1024.2
20190120234526 36 223 2.0 4.0 0.00 0.00 0.00 93 1024.1
20190120234011 36 223 1.0 2.0 0.00 0.00 0.00 93 1024.1
20190120233515 37 223 0.0 5.0 0.00 0.00 0.00 94 1024.1
20190120233020 37 223 2.0 5.0 0.00 0.00 0.00 94 1024.1
20190120232509 37 222 1.0 5.0 0.00 0.00 0.00 94 1024.0
20190120232011 37 220 1.0 5.0 0.00 0.00 0.00 94 1024.0
20190120231513 37 220 3.0 6.0 0.00 0.00 0.00 94 1024.0
20190120231012 37 216 3.0 6.0 0.00 0.00 0.00 94 1023.9
20190120230512 37 227 3.0 6.0 0.00 0.00 0.00 94 1024.0
20190120230019 37 236 2.0 5.0 0.00 0.00 0.00 94 1024.0
20190120225507 37 225 0.0 5.0 0.00 0.00 0.00 94 1023.8
20190120225006 37 222 2.0 8.0 0.00 0.00 0.00 94 1023.8
20190120224517 37 241 3.0 8.0 0.00 0.00 0.00 94 1023.8
20190120224006 37 234 1.0 5.0 0.00 0.00 0.00 94 1023.7
20190120223508 37 236 1.0 5.0 0.00 0.00 0.00 94 1023.7
20190120223006 37 224 3.0 5.0 0.00 0.00 0.00 94 1023.7
20190120222504 37 238 3.0 6.0 0.00 0.00 0.00 94 1023.6
20190120222006 37 229 3.0 6.0 0.00 0.00 0.00 93 1023.6
20190120221506 37 231 2.0 6.0 0.00 0.00 0.00 93 1023.6
20190120221007 37 234 2.0 8.0 0.00 0.00 0.00 93 1023.5
20190120220503 37 229 3.0 8.0 0.00 0.00 0.00 93 1023.5
20190120220005 37 205 3.0 7.0 0.00 0.00 0.00 93 1023.4
20190120215504 37 252 4.0 7.0 0.00 0.00 0.00 93 1023.5
20190120215003 37 222 3.0 6.0 0.00 0.00 0.00 93 1023.5
20190120214519 37 228 1.0 5.0 0.00 0.00 0.00 93 1023.4
20190120214005 37 227 3.0 6.0 0.00 0.00 0.00 93 1023.4
20190120213504 37 235 2.0 8.0 0.00 0.00 0.00 93 1023.3
20190120212600 37 229 3.0 6.0 0.00 0.00 0.00 93 1023.2
20190120212103 37 242 2.0 7.0 0.00 0.00 0.00 93 1023.2
20190120211737 37 234 2.0 7.0 0.00 0.00 0.00 93 1023.2
20190120211058 37 236 2.0 7.0 0.00 0.00 0.00 93 1023.1
20190120210557 37 236 2.0 8.0 0.00 0.00 0.00 93 1023.1
20190120210155 37 236 2.0 5.0 0.00 0.00 0.00 93 1023.0
20190120205556 37 235 1.0 6.0 0.00 0.00 0.00 93 1022.9
20190120205058 37 234 2.0 6.0 0.00 0.00 0.00 93 1022.8
20190120204616 37 230 1.0 6.0 0.00 0.00 0.00 93 1022.8
20190120204100 37 230 2.0 6.0 0.00 0.00 0.00 93 1022.9
20190120203559 37 240 3.0 7.0 0.00 0.00 0.00 93 1022.8
20190120203234 37 240 1.0 5.0 0.00 0.00 0.00 93 1022.8
20190120202554 37 240 0.0 7.0 0.00 0.00 0.00 93 1022.7
20190120202053 37 240 2.0 7.0 0.00 0.00 0.00 93 1022.7
20190120201707 37 248 1.0 7.0 0.00 0.00 0.00 93 1022.8
20190120201053 37 228 5.0 9.0 0.00 0.00 0.00 93 1022.7
20190120200553 37 238 3.0 9.0 0.00 0.00 0.00 93 1022.8
20190120200116 37 223 3.0 8.0 0.00 0.00 0.00 93 1022.7
20190120195049 37 254 4.0 8.0 0.00 0.00 0.00 93 1022.6
20190120194705 37 240 3.0 8.0 0.00 0.00 0.00 93 1022.6
20190120194048 37 236 2.0 7.0 0.00 0.00 0.00 93 1022.5
20190120193549 37 227 2.0 7.0 0.00 0.00 0.00 93 1022.4
20190120193100 37 245 2.0 7.0 0.00 0.00 0.00 93 1022.4
20190120192548 37 246 3.0 8.0 0.00 0.00 0.00 93 1022.3
20190120192046 37 232 3.0 8.0 0.00 0.00 0.00 93 1022.3
20190120191635 37 230 3.0 6.0 0.00 0.00 0.00 93 1022.2
20190120191048 37 243 3.0 7.0 0.00 0.00 0.00 93 1022.1
20190120190543 37 238 3.0 7.0 0.00 0.00 0.00 93 1022.0
20190120190131 37 239 2.0 5.0 0.00 0.00 0.00 93 1022.0
20190120185542 37 238 3.0 5.0 0.00 0.00 0.00 93 1021.9
20190120185041 37 223 1.0 7.0 0.00 0.00 0.00 93 1021.8
20190120184645 37 240 2.0 7.0 0.00 0.00 0.00 93 1021.7
20190120184040 37 232 2.0 5.0 0.00 0.00 0.00 93 1021.6
20190120183540 37 237 3.0 5.0 0.00 0.00 0.00 92 1021.6
20190120183050 37 226 3.0 5.0 0.00 0.00 0.00 92 1021.4
20190120182538 37 228 2.0 5.0 0.00 0.00 0.00 93 1021.4
20190120182038 37 229 2.0 4.0 0.00 0.00 0.00 93 1021.4
20190120181614 37 230 2.0 4.0 0.00 0.00 0.00 93 1021.5
20190120181037 37 237 1.0 4.0 0.00 0.00 0.00 92 1021.5
20190120180537 37 236 0.0 4.0 0.00 0.00 0.00 92 1021.4
20190120180157 37 236 0.0 3.0 0.00 0.00 0.00 92 1021.4
20190120175536 37 236 0.0 3.0 0.00 0.00 0.00 92 1021.4
20190120175037 37 236 0.0 5.0 0.00 0.00 0.00 92 1021.3
20190120174618 37 236 0.0 5.0 0.00 0.00 0.00 92 1021.3
20190120174039 38 238 0.0 7.0 0.00 0.00 0.00 92 1021.1
20190120173535 38 239 2.0 7.0 0.00 0.00 0.00 92 1021.1
20190120173127 37 246 1.0 4.0 0.00 0.00 0.00 92 1021.2
20190120172539 38 248 2.0 4.0 0.00 0.00 0.00 92 1021.1
20190120172036 37 240 1.0 5.0 0.00 0.00 0.00 92 1021.0
20190120171554 37 232 1.0 4.0 0.00 0.00 0.00 92 1021.0
20190120171037 37 244 1.0 7.0 0.00 0.00 0.00 92 1020.9
20190120170532 37 250 1.0 7.0 0.00 0.00 0.00 92 1020.9
20190120170229 37 242 3.0 5.0 0.00 0.00 0.00 92 1020.8
20190120165532 37 232 2.0 8.0 0.00 0.00 0.00 92 1020.8
20190120165032 37 241 3.0 8.0 0.00 0.00 0.00 92 1020.9
20190120164550 37 236 3.0 7.0 0.00 0.00 0.00 92 1020.8
20190120164031 37 223 3.0 8.0 0.00 0.00 0.00 91 1020.8
20190120163531 37 238 2.0 8.0 0.00 0.00 0.00 91 1020.7
20190120163128 38 244 2.0 8.0 0.00 0.00 0.00 91 1020.8
20190120162530 38 237 2.0 8.0 0.00 0.00 0.00 91 1020.7
20190120162027 38 228 2.0 9.0 0.00 0.00 0.00 91 1020.6
20190120161553 38 239 2.0 9.0 0.00 0.00 0.00 91 1020.5
20190120161026 38 246 2.0 6.0 0.00 0.00 0.00 90 1020.5
20190120160526 38 223 2.0 11.0 0.00 0.00 0.00 90 1020.4
20190120160054 38 229 4.0 11.0 0.00 0.00 0.00 90 1020.3
20190120155528 38 211 2.0 9.0 0.00 0.00 0.00 89 1020.3
20190120155024 38 233 5.0 10.0 0.00 0.00 0.00 89 1020.1
20190120154627 38 248 2.0 10.0 0.00 0.00 0.00 89 1020.1
20190120154027 38 286 1.0 9.0 0.00 0.00 0.00 88 1020.0
20190120153526 39 279 1.0 7.0 0.00 0.00 0.00 88 1019.9
20190120153041 39 290 2.0 6.0 0.00 0.00 0.00 87 1019.9
20190120152521 39 253 0.0 5.0 0.00 0.00 0.00 87 1019.9
20190120152022 40 246 0.0 5.0 0.00 0.00 0.00 87 1019.8
20190120151633 40 257 1.0 4.0 0.00 0.00 0.00 87 1019.8
20190120151019 40 265 0.0 4.0 0.00 0.00 0.00 87 1019.7
20190120150518 40 240 1.0 4.0 0.00 0.00 0.00 88 1019.5
20190120150039 40 242 0.0 4.0 0.00 0.00 0.00 88 1019.5
20190120145519 40 242 0.0 8.0 0.00 0.00 0.00 89 1019.5
20190120145015 39 246 0.0 7.0 0.00 0.00 0.00 89 1019.6
20190120144529 39 240 2.0 5.0 0.00 0.00 0.00 89 1019.6
20190120144014 39 255 1.0 6.0 0.00 0.00 0.00 88 1019.5
20190120143514 39 248 1.0 5.0 0.00 0.00 0.00 88 1019.6
20190120143028 39 241 1.0 7.0 0.00 0.00 0.00 88 1019.5
20190120142513 39 253 3.0 7.0 0.00 0.00 0.00 88 1019.5
20190120142012 39 213 1.0 4.0 0.00 0.00 0.00 88 1019.5
20190120141516 39 240 1.0 5.0 0.00 0.00 0.00 88 1019.5
20190120141011 39 236 2.0 5.0 0.00 0.00 0.00 88 1019.5
20190120140511 39 228 1.0 7.0 0.00 0.00 0.00 88 1019.5
20190120140036 39 227 2.0 7.0 0.00 0.00 0.00 87 1019.4
20190120135511 39 261 3.0 8.0 0.00 0.00 0.00 87 1019.5
20190120135011 39 235 4.0 8.0 0.00 0.00 0.00 87 1019.5
20190120134529 39 248 2.0 6.0 0.00 0.00 0.00 88 1019.5
20190120134011 39 237 2.0 8.0 0.00 0.00 0.00 88 1019.4
20190120133509 38 235 3.0 8.0 0.00 0.00 0.00 88 1019.4
20190120133009 38 253 2.0 7.0 0.00 0.00 0.00 88 1019.4
20190120132512 38 227 3.0 7.0 0.00 0.00 0.00 88 1019.3
20190120132007 38 232 3.0 7.0 0.00 0.00 0.00 88 1019.3
20190120131509 38 249 4.0 7.0 0.00 0.00 0.00 88 1019.2
20190120131006 38 244 3.0 7.0 0.00 0.00 0.00 89 1019.2
20190120130507 38 252 2.0 5.0 0.00 0.00 0.00 89 1019.1
20190120130023 38 223 2.0 5.0 0.00 0.00 0.00 89 1019.1
20190120125504 38 221 3.0 6.0 0.00 0.00 0.00 89 1019.1
20190120125006 38 205 2.0 6.0 0.00 0.00 0.00 89 1019.0
20190120124514 38 229 2.0 8.0 0.00 0.00 0.00 89 1019.1
20190120124003 38 250 3.0 8.0 0.00 0.00 0.00 89 1019.2
20190120123502 38 234 3.0 7.0 0.00 0.00 0.00 89 1019.2
20190120123014 38 227 3.0 7.0 0.00 0.00 0.00 89 1019.2
20190120122504 38 238 2.0 7.0 0.00 0.00 0.00 89 1019.1
20190120122104 38 238 3.0 6.0 0.00 0.00 0.00 89 1019.1
20190120121639 37 234 3.0 8.0 0.00 0.00 0.00 89 1019.0
20190120121101 37 211 3.0 8.0 0.00 0.00 0.00 89 1019.0
20190120120602 37 239 2.0 6.0 0.00 0.00 0.00 89 1019.0
20190120120159 37 203 1.0 8.0 0.00 0.00 0.00 89 1018.9
20190120115558 37 182 3.0 8.0 0.00 0.00 0.00 89 1018.8
20190120115059 37 198 5.0 8.0 0.00 0.00 0.00 89 1018.8
20190120114700 37 215 3.0 6.0 0.00 0.00 0.00 90 1018.8
20190120114057 37 221 1.0 6.0 0.00 0.00 0.00 90 1018.8
20190120113556 37 224 2.0 5.0 0.00 0.00 0.00 90 1018.8
20190120113318 37 225 2.0 7.0 0.00 0.00 0.00 90 1018.8
20190120112552 37 240 2.0 7.0 0.00 0.00 0.00 90 1018.9
20190120112057 37 207 1.0 4.0 0.00 0.00 0.00 90 1018.9
20190120111615 37 206 0.0 4.0 0.00 0.00 0.00 90 1018.9
20190120111054 37 206 0.0 5.0 0.00 0.00 0.00 90 1018.9
20190120110553 37 206 0.0 5.0 0.00 0.00 0.00 90 1018.9
20190120110104 37 205 1.0 4.0 0.00 0.00 0.00 90 1018.8
20190120105550 37 205 2.0 4.0 0.00 0.00 0.00 90 1018.8
20190120105051 37 236 0.0 3.0 0.00 0.00 0.00 90 1018.8
20190120104620 37 237 0.0 3.0 0.00 0.00 0.00 90 1018.8
20190120104046 37 238 0.0 0.0 0.00 0.00 0.00 90 1018.7
20190120103545 37 238 0.0 0.0 0.00 0.00 0.00 91 1018.6
20190120103133 37 238 0.0 3.0 0.00 0.00 0.00 91 1018.6
20190120102545 37 238 0.0 3.0 0.00 0.00 0.00 91 1018.5
20190120102049 37 238 0.0 2.0 0.00 0.00 0.00 91 1018.5
20190120101612 37 238 0.0 2.0 0.00 0.00 0.00 91 1018.4
20190120101044 36 238 0.0 2.0 0.00 0.00 0.00 91 1018.4
20190120100546 36 240 0.0 0.0 0.00 0.00 0.00 91 1018.4
20190120100102 36 240 0.0 1.0 0.00 0.00 0.00 91 1018.3
20190120095541 36 240 0.0 2.0 0.00 0.00 0.00 91 1018.3
20190120095041 36 240 0.0 2.0 0.00 0.00 0.00 92 1018.2
20190120094633 36 240 0.0 0.0 0.00 0.00 0.00 92 1018.2
20190120094042 36 240 0.0 3.0 0.00 0.00 0.00 92 1018.0
20190120093542 36 240 0.0 3.0 0.00 0.00 0.00 92 1018.0
20190120093058 36 240 0.0 4.0 0.00 0.00 0.00 92 1018.0
20190120092539 36 240 1.0 4.0 0.00 0.00 0.00 92 1018.0
20190120092039 36 240 0.0 2.0 0.00 0.00 0.00 92 1017.9
20190120091630 36 240 0.0 2.0 0.00 0.00 0.00 92 1017.8
20190120091042 36 240 0.0 2.0 0.00 0.00 0.00 92 1017.7
20190120090535 36 240 0.0 0.0 0.00 0.00 0.00 92 1017.7
20190120090134 36 240 0.0 0.0 0.00 0.00 0.00 92 1017.6
20190120085534 36 240 0.0 0.0 0.00 0.00 0.00 92 1017.5
20190120085033 36 240 0.0 0.0 0.00 0.00 0.00 92 1017.4
20190120084636 36 240 0.0 0.0 0.00 0.00 0.00 92 1017.4
20190120084031 35 240 0.0 0.0 0.00 0.00 0.00 92 1017.5
20190120083531 35 240 0.0 1.0 0.00 0.00 0.00 92 1017.4
20190120083105 35 240 0.0 0.0 0.00 0.00 0.00 92 1017.4
20190120082529 35 240 0.0 1.0 0.00 0.00 0.00 92 1017.3
20190120082027 35 240 0.0 3.0 0.00 0.00 0.00 92 1017.2
20190120081537 35 240 0.0 3.0 0.00 0.00 0.00 92 1017.1
20190120081025 35 240 0.0 2.0 0.00 0.00 0.00 92 1017.1
20190120080531 35 240 0.0 2.0 0.00 0.00 0.00 92 1017.0
20190120080107 35 240 0.0 2.0 0.00 0.00 0.00 92 1016.9
20190120075526 35 240 0.0 2.0 0.00 0.00 0.00 92 1016.8
20190120075023 35 240 0.0 0.0 0.00 0.00 0.00 92 1016.7
20190120074524 35 240 0.0 0.0 0.00 0.00 0.00 92 1016.6
20190120074021 35 240 0.0 2.0 0.00 0.00 0.00 92 1016.5
20190120073521 35 240 0.0 3.0 0.00 0.00 0.00 92 1016.5
20190120073032 35 240 0.0 2.0 0.00 0.00 0.00 92 1016.4
20190120072524 35 240 0.0 0.0 0.00 0.00 0.00 92 1016.3
20190120072023 35 240 0.0 0.0 0.00 0.00 0.00 91 1016.3
20190120071526 35 240 0.0 0.0 0.00 0.00 0.00 91 1016.2
20190120071016 35 240 0.0 0.0 0.00 0.00 0.00 91 1016.2
20190120070516 35 240 0.0 3.0 0.00 0.00 0.00 91 1016.1
20190120070021 35 240 0.0 7.0 0.00 0.00 0.00 91 1015.9
20190120065515 35 240 2.0 7.0 0.00 0.00 0.00 91 1015.8
20190120065017 35 209 0.0 5.0 0.00 0.00 0.00 91 1015.8
20190120064518 35 221 1.0 6.0 0.00 0.00 0.00 91 1015.7
20190120064017 35 188 2.0 9.0 0.00 0.00 0.00 92 1015.6
20190120063511 35 169 6.0 10.0 0.00 0.00 0.00 92 1015.6
20190120063011 35 185 8.0 13.0 0.00 0.00 0.00 92 1015.5
20190120062514 35 181 9.0 12.0 0.00 0.00 0.00 93 1015.4
20190120062009 35 171 9.0 11.0 0.00 0.00 0.00 93 1015.3
20190120061510 34 159 8.0 9.0 0.00 0.00 0.00 93 1015.3
20190120061007 34 165 5.0 8.0 0.00 0.00 0.00 93 1015.3
20190120060508 34 180 5.0 8.0 0.00 0.00 0.00 93 1015.2
20190120060008 34 170 4.0 6.0 0.00 0.00 0.00 93 1015.2
20190120055504 34 169 5.0 6.0 0.00 0.00 0.00 94 1015.1